Regional Weather Roundup
Issued by NWS

Home | Current Version | Previous Version | Text Only | Print | Product List | Glossary Off
Versions: 1 2 3 4 5 6 7 8 9 10 11 12 13 14 15 16 17 18 19 20 21 22 23 24 25 26 27 28

000
ASUS45 KTFX 300010
RWRMT
MONTANA REGIONAL WEATHER ROUNDUP
NATIONAL WEATHER SERVICE GREAT FALLS MT
600 PM MDT WED MAR 29 2017

NOTE: "FAIR" INDICATES FEW OR NO CLOUDS BELOW 12000 FEET WITH NO
SIGNIFICANT WEATHER AND/OR OBSTRUCTIONS TO VISIBILITY.

MTZ001>007-043-300100-
WEST OF THE DIVIDE

CITY           SKY/WX    TMP DP  RH WIND       PRES   REMARKS
KALISPELL      LGT RAIN  45  41  86 S6        29.87S
MISSOULA       CLOUDY    52  38  58 CALM      29.92F
BUTTE          CLOUDY    48  34  58 W13G22    29.94R
MULLAN PASS    LGT RAIN  33  33 100 VRB6      29.88S VSB 1/4 WCI  28
ANACONDA         N/A     48  36  61 S8        29.92F
DEER LODGE       N/A     50  37  62 N5        29.93S
EUREKA           N/A     46  37  71 SE13G18   29.85R
HAMILTON         N/A     46  43  87 S10       29.95S
PLAINS           N/A     52  39  61 CALM      29.90F
RONAN            N/A     50  41  71 E5        29.94
$$

MTZ008-052>055-300100-
SOUTHWEST MONTANA

CITY           SKY/WX    TMP DP  RH WIND       PRES   REMARKS
BOZEMAN        CLOUDY    56  35  45 CALM      29.89S
DILLON         LGT RAIN  48  37  65 SW17G26   29.95R
W YELLOWSTONE  CLOUDY    37  30  75 SW13G21   30.07F WCI  29
ENNIS          PTSUNNY   48  30  49 S25G35    30.01R
THREE FORKS      N/A     56  56 100 SW13      29.91R
TWIN BRIDGES     N/A     53  34  48 S21       29.94R
$$

MTZ009-010-012-014-046-048-049-054-300100-
EAST SLOPES AND CENTRAL MONTANA

CITY           SKY/WX    TMP DP  RH WIND       PRES   REMARKS
CUT BANK       CLOUDY    50  30  46 W25       29.75F
GREAT FALLS    CLOUDY    56  34  43 SW29G39   29.79F
MALMSTROM AFB  CLOUDY    56  34  44 SW24G33   29.81F
HELENA         CLOUDY    54  40  59 SW3       29.87R
AUGUSTA        PTSUNNY   53  31  43 W17       29.79F
CHOTEAU          N/A     55  30  38 VRB5      29.79S
CONRAD           N/A     55  35  46 W5        29.82S
$$

MTZ011-013-016-021-045-047-050-051-300100-
NORTH CENTRAL MONTANA

CITY           SKY/WX    TMP DP  RH WIND       PRES   REMARKS
HAVRE          CLOUDY    56  34  43 SW14      29.79F
LEWISTOWN      PTSUNNY   53  31  42 W21       29.84F
N BAR RANCH    CLOUDY    54  27  35 SW14G22   29.86F
CHINOOK          N/A     59  28  31 SW9       29.78F
DENTON         PTSUNNY   56  30  37 W14       29.79S
FORT BENTON      N/A     57  32  38 MISG      29.80F
STANFORD       PTSUNNY   54  31  42 W15       29.83F
$$

MTZ017>020-022>027-061-062-300100-
NORTHEAST MONTANA

CITY           SKY/WX    TMP DP  RH WIND       PRES   REMARKS
GLASGOW        MOSUNNY   58  26  29 W8        29.83F
JORDAN           N/A     59  28  30 W6        29.84F
SIDNEY         SUNNY     61  28  28 W7        29.86F
WOLF POINT     MOSUNNY   60  29  30 SW8       29.86F
MALTA          MOSUNNY   57  28  33 S8        29.81F
PLENTYWOOD       N/A     59  27  29 W16G23    29.83F
POPLAR           N/A     57  30  35 SW7       29.86F
SCOBEY           N/A     57  25  29 SW15      29.84S
$$

MTZ028>42-056>058-300100-
SOUTHCENTRAL AND SOUTHEAST MONTANA

CITY           SKY/WX    TMP DP  RH WIND       PRES   REMARKS
BAKER          SUNNY     57  26  30 W12       29.91F
BILLINGS       CLOUDY    58  34  40 E9        29.84F
LIVINGSTON     MOSUNNY   53  29  39 SW35G48   29.85F
MILES CITY     SUNNY     58  28  32 W5        29.88F
BIG TIMBER     SUNNY     57  32  38 W25       29.87F
EKALAKA          N/A     56  27  33 W6        29.90F
FORSYTH          N/A     61  30  31 CALM      29.87F
LAUREL           N/A     62  28  27 SW8       29.85S
$$

REGIONAL REPORTS...DAKOTAS

CITY           SKY/WX    TMP DP  RH WIND       PRES   REMARKS
WILLISTON      SUNNY     61  30  31 W9        29.86F
MINOT          PTSUNNY   53  46  77 N3        29.87F
DICKINSON      SUNNY     60  25  26 SW13      29.86F
BEACH            N/A     59  27  29 SW8       29.91F
TIOGA            N/A     57  30  35 W10       29.87F
WATFORD CITY     N/A     59  30  33 W9G16     29.86F
BISMARCK       CLOUDY    62  38  40 S14       29.93F
GRAND FORKS    PTCLDY    57  43  59 S13       30.01S
FARGO          CLOUDY    57  36  45 S18       30.05R
BUFFALO SD       N/A     62  29  28 MISG      29.84F
RAPID CITY     SUNNY     56  37  49 E5        29.95F
$$

REGIONAL REPORTS...WYOMING/IDAHO/WASHINGTON

CITY           SKY/WX    TMP DP  RH WIND       PRES   REMARKS
GILLETTE       SUNNY     57  23  26 E5        29.91F
SHERIDAN       SUNNY     60  28  29 SE5       29.87F
BUFFALO WY     SUNNY     58  28  32 E8        29.90F
CODY           CLOUDY    56  27  32 W21G30    29.92S
YELLOWSTONE LA   N/A     33  28  81 VRB6      30.10F WCI  28
IDAHO FALLS    CLOUDY    53  34  48 S18       30.06F
SALMON         CLOUDY    46  41  81 N5        29.97S
BOISE          LGT RAIN  59  41  51 SE9       30.00F
SPOKANE        CLOUDY    50  45  83 SW18      29.85S
$$

REGIONAL REPORTS...ALBERTA

CITY           SKY/WX    TMP DP  RH WIND       PRES   REMARKS
EDMONTON       PTSUNNY   48  39  71 E10       29.72F
CALGARY        CLOUDY    50  27  40 S10G17    29.67F
LETHBRIDGE     CLOUDY    54  30  40 SW13G21   29.71F
MEDICINE HAT   CLOUDY    55  28  35 SW7       29.74F
WATERTON GATE    N/A     46  30  53 SW22G36     N/A
CARDSTON         N/A     52  28  40 SW6         N/A
MILK RIVER       N/A     54  32  43 SW13G18     N/A
$$

REGIONAL REPORTS...SASKATCHEWAN

CITY           SKY/WX    TMP DP  RH WIND       PRES   REMARKS
SWIFT CURRENT  SUNNY     55  21  26 W8G20     29.77F
REGINA         MOSUNNY   59  30  33 NW8       29.79R
SASKATOON      MOSUNNY   50  37  62 N9        29.79F
CYPRESS HILLS    N/A     46  21  36 SW7         N/A
ROCKGLEN         N/A     54  23  30 W17         N/A
ASSINIBOIA       N/A     45  37  76 E3          N/A
$$




USA.gov is the U.S. government's official web portal to all federal, state and local government web resources and services.